Sierra Vista, AZ

6:40 PM MST on July 25, 2017 (GMT -0700)
Sierra Vista Municipal-Libby Army Air Field

Weather History for KFHU - September, 2013

Change the Weather History Date:

Wednesday, September 18, 2013

  Actual Average Record
Temperature  
Mean Temperature 78 °F -  
Max Temperature 89 °F 84 °F 96 °F (1988)
Min Temperature 66 °F 64 °F 52 °F (1988)
Cooling Degree Days 12    
Growing Degree Days 28 (Base 50)    
Moisture  
Dew Point 48 °F    
Average Humidity 39    
Maximum Humidity 73    
Minimum Humidity 19    
Precipitation  
Precipitation 0.00 in - - ()
Sea Level Pressure  
Sea Level Pressure 29.77 in    
Wind  
Wind Speed 5 mph (WSW)    
Max Wind Speed 13 mph    
Max Gust Speed -    
Visibility 10 miles    
Events      
Averages and records for this station are not official NWS values.
T = Trace of Precipitation, MM = Missing Value Source: NWS Daily Summary

Daily Weather History Graph

Daily Weather History Graph

Search for Another Location

Airport or City:

Trip Planner

Search our weather history database for the weather conditions in past years. The results will help you decide how hot, cold, wet, or windy it might be!

Date:

Astronomy

Sep. 18, 2013 Rise Set
Actual Time 6:07 AM MST 6:22 PM MST
Civil Twilight 5:43 AM MST 6:47 PM MST
Nautical Twilight 5:14 AM MST 7:15 PM MST
Astronomical Twilight 4:45 AM MST 7:44 PM MST
Moon 5:49 PM MST (9/18) 5:14 AM MST (9/18)
Length of Visible Light 13h 04m
Length of Day
12h 15m
Waxing Gibbous, 99% of the Moon is Illuminated
Sep 18
Waxing Gibbous
Sep 19
Full
Sep 26
Last Quarter
Oct 4
New
Oct 11
First Quarter

Hourly Weather History & Observations

Time (MST) Temp. Dew Point Humidity Pressure Visibility Wind Dir Wind Speed Gust Speed Precip Events Conditions
12:55 AM 73.4 °F 55.4 °F 53% 29.79 in 10.0 mi SSW 8.1 mph - N/A   Partly Cloudy
1:55 AM 71.6 °F 57.2 °F 60% 29.77 in 10.0 mi South 5.8 mph - N/A   Partly Cloudy
2:55 AM 69.8 °F 55.4 °F 60% 29.77 in 10.0 mi West 6.9 mph - N/A   Partly Cloudy
3:55 AM 68.0 °F 55.4 °F 64% 29.76 in 10.0 mi West 4.6 mph - N/A   Scattered Clouds
4:55 AM 69.8 °F 55.4 °F 60% 29.78 in 10.0 mi Calm Calm - N/A   Scattered Clouds
5:55 AM 66.2 °F 57.2 °F 73% 29.80 in 10.0 mi Calm Calm - N/A   Partly Cloudy
6:55 AM 71.6 °F 48.2 °F 43% 29.81 in 10.0 mi SW 6.9 mph - N/A   Partly Cloudy
7:55 AM 73.4 °F 57.2 °F 57% 29.83 in 10.0 mi Calm Calm - N/A   Partly Cloudy
8:55 AM 78.8 °F 53.6 °F 42% 29.83 in 10.0 mi Calm Calm - N/A   Partly Cloudy
9:55 AM 82.4 °F 46.4 °F 28% 29.81 in 10.0 mi Calm Calm - N/A   Partly Cloudy
10:55 AM 86.0 °F 39.2 °F 19% 29.80 in 10.0 mi Variable 4.6 mph - N/A   Partly Cloudy
11:55 AM 86.0 °F 39.2 °F 19% 29.79 in 10.0 mi Variable 4.6 mph - N/A   Partly Cloudy
12:55 PM 87.8 °F 44.6 °F 22% 29.77 in 10.0 mi Calm Calm - N/A   Partly Cloudy
1:55 PM 87.8 °F 42.8 °F 21% 29.74 in 10.0 mi Calm Calm - N/A   Scattered Clouds
2:55 PM 89.6 °F 46.4 °F 22% 29.73 in 10.0 mi SW 5.8 mph - N/A   Mostly Cloudy
3:55 PM 87.8 °F 44.6 °F 22% 29.72 in 10.0 mi Variable 5.8 mph - N/A   Scattered Clouds
4:55 PM 87.8 °F 44.6 °F 22% 29.70 in 10.0 mi WSW 5.8 mph - N/A   Partly Cloudy
5:55 PM 84.2 °F 44.6 °F 25% 29.71 in 10.0 mi West 6.9 mph - N/A   Partly Cloudy
6:55 PM 78.8 °F 46.4 °F 32% 29.73 in 10.0 mi SW 10.4 mph - N/A   Partly Cloudy
7:55 PM 78.8 °F 46.4 °F 32% 29.75 in 10.0 mi West 10.4 mph - N/A   Mostly Cloudy
8:55 PM 73.4 °F 46.4 °F 38% 29.78 in 10.0 mi West 11.5 mph - N/A   Scattered Clouds
9:55 PM 71.6 °F 46.4 °F 41% 29.77 in 10.0 mi West 11.5 mph - N/A   Scattered Clouds
10:55 PM 71.6 °F 46.4 °F 41% 29.77 in 10.0 mi West 12.7 mph - N/A   Scattered Clouds
11:55 PM 73.4 °F 44.6 °F 36% 29.77 in 10.0 mi West 11.5 mph - N/A   Scattered Clouds